Погода в Кипени

Россия / Санкт-Петербург и Ленинградская область     59°41′04″N   29°51′04″E
темп.,
°C
ветер,
м/с
пор.,
м/с
влажн.,
%
обл.,
%
осадки,
мм/ч
давл.,
гПа
погр.,
м
18 сентября, сб
сб1800:00+3в229166 0.0 102627
03:00+7в2362100 0.0 102686
06:00+6в2363100 0.0 102776
09:00+8в265955 0.0 1027395
12:00+10в454858 0.0 10271594
15:00+11всв5646100 0.0 10261571
18:00+9всв5862100 0.0 1026704
21:00+7всв41173100 0.0 1026408
19 сентября, вс
вс1900:00+5в3108099 0.0 1027416
03:00+3всв31084100 0.0 1027367
06:00+2всв41083100 0.0 1027364
09:00+4всв5117178 0.0 1028536
12:00+8в6953100 0.0 1027973
15:00+9всв684986 0.0 10271250
18:00+8всв5860100 0.0 1026998
21:00+5всв4126793 0.0 1027519
20 сентября, пн
пн2000:00+5всв41273100 0.0 1027511
03:00+4всв51277100 0.0 1027481
06:00+4всв51277100 0.0 1027508
09:00+4всв61170100 0.0 1028637
12:00+6всв6958100 0.0 1027872
15:00+8всв685195 0.0 10271129
18:00+7всв585984 0.0 10261080
21:00+4всв41169100 0.0 1027509
21 сентября, вт
вт2100:00+2всв41076100 0.0 1026369
03:00+2всв3981100 0.0 1026340
06:00+2св398459 0.0 1025369
09:00+4всв497318 0.0 1024655
12:00+8св565495 0.0 10231077
15:00+9св565258 0.0 10221182
18:00+7св476477 0.0 1022941
21:00+4с38807 0.0 1022204
22 сентября, ср
ср2200:00+3с258935 0.0 102296
03:00+3с36935 0.0 1021112
06:00+3с37945 0.0 1022175
09:00+6с36815 0.0 1021392
12:00+9ссв44615 0.0 1020942
15:00+11с44525 0.0 10191173
18:00+9ссв35625 0.0 1019193
21:00+4всв228770 0.0 101923